Time,TemperatureF,DewpointF,PressureIn,WindDirection,WindDirectionDegrees,WindSpeedMPH,WindSpeedGustMPH,Humidity,HourlyPrecipIn,Conditions,Clouds,dailyrainin,SoftwareType,DateUTC
2013-03-22 00:00:00,37.9,32.6,30.27,North,0,0.0,0.0,81,0.00,,SKC,0.00,VWS V13.01,2013-03-22 07:00:00,
2013-03-22 00:10:00,37.9,32.9,30.27,North,0,0.0,0.0,82,0.00,,SKC,0.00,VWS V13.01,2013-03-22 07:10:00,
2013-03-22 00:20:00,37.8,32.8,30.26,North,0,0.0,0.0,82,0.00,,SKC,0.00,VWS V13.01,2013-03-22 07:20:00,
2013-03-22 00:30:00,37.8,33.1,30.26,North,0,0.0,0.0,83,0.00,,SKC,0.00,VWS V13.01,2013-03-22 07:30:00,
2013-03-22 00:40:00,37.9,33.2,30.26,North,0,0.0,0.0,83,0.00,,SKC,0.00,VWS V13.01,2013-03-22 07:40:00,
2013-03-22 00:50:00,37.9,33.5,30.26,North,0,0.0,0.0,84,0.01,,SKC,0.01,VWS V13.01,2013-03-22 07:50:00,
2013-03-22 01:00:00,37.8,33.4,30.26,North,0,0.0,0.0,84,0.01,,SKC,0.01,VWS V13.01,2013-03-22 08:00:00,
2013-03-22 01:10:00,37.6,33.5,30.26,North,0,0.0,0.0,85,0.01,,SKC,0.01,VWS V13.01,2013-03-22 08:10:00,
2013-03-22 01:20:00,37.3,33.5,30.26,North,0,0.0,0.0,86,0.02,,SKC,0.02,VWS V13.01,2013-03-22 08:20:00,
2013-03-22 01:30:00,37.2,33.4,30.26,North,0,0.0,0.0,86,0.02,,SKC,0.02,VWS V13.01,2013-03-22 08:30:00,
2013-03-22 01:40:00,37.2,33.7,30.26,North,0,0.0,0.0,87,0.03,,SKC,0.03,VWS V13.01,2013-03-22 08:40:00,
2013-03-22 01:50:00,36.9,33.4,30.25,North,0,0.0,0.0,87,0.03,,SKC,0.03,VWS V13.01,2013-03-22 08:50:00,
2013-03-22 02:00:00,37.0,33.5,30.25,North,0,0.0,0.0,87,0.02,,SKC,0.03,VWS V13.01,2013-03-22 09:00:00,
2013-03-22 02:10:00,37.2,33.7,30.25,North,0,0.0,0.0,87,0.02,,SKC,0.03,VWS V13.01,2013-03-22 09:10:00,
2013-03-22 02:20:00,37.0,33.5,30.25,North,0,0.0,0.0,87,0.02,,SKC,0.03,VWS V13.01,2013-03-22 09:20:00,
2013-03-22 02:30:00,37.2,34.0,30.26,North,0,0.0,0.0,88,0.01,,SKC,0.03,VWS V13.01,2013-03-22 09:30:00,
2013-03-22 02:40:00,37.0,33.8,30.26,North,0,0.0,0.0,88,0.01,,SKC,0.03,VWS V13.01,2013-03-22 09:40:00,
2013-03-22 02:50:00,37.0,33.8,30.26,North,0,0.0,0.0,88,0.00,,SKC,0.03,VWS V13.01,2013-03-22 09:50:00,
2013-03-22 03:00:00,36.9,33.7,30.26,North,0,0.0,0.0,88,0.00,,SKC,0.03,VWS V13.01,2013-03-22 10:00:00,
2013-03-22 03:10:00,36.9,33.7,30.26,North,0,0.0,0.0,88,0.00,,SKC,0.03,VWS V13.01,2013-03-22 10:10:00,
2013-03-22 03:20:00,36.8,33.9,30.26,North,0,0.0,0.0,89,0.00,,SKC,0.03,VWS V13.01,2013-03-22 10:20:00,
2013-03-22 03:30:00,36.5,33.6,30.25,North,0,0.0,0.0,89,0.00,,SKC,0.03,VWS V13.01,2013-03-22 10:30:00,
2013-03-22 03:40:00,36.5,33.6,30.25,North,0,0.0,0.0,89,0.00,,SKC,0.03,VWS V13.01,2013-03-22 10:40:00,
2013-03-22 03:50:00,36.2,33.3,30.25,North,0,0.0,0.0,89,0.00,,SKC,0.03,VWS V13.01,2013-03-22 10:50:00,
2013-03-22 04:00:00,36.0,33.1,30.25,North,0,0.0,0.0,89,0.00,,SKC,0.03,VWS V13.01,2013-03-22 11:00:00,
2013-03-22 04:10:00,35.9,33.3,30.25,North,0,0.0,0.0,90,0.00,,SKC,0.03,VWS V13.01,2013-03-22 11:10:00,
2013-03-22 04:20:00,35.8,33.2,30.25,North,0,0.0,0.0,90,0.00,,SKC,0.03,VWS V13.01,2013-03-22 11:20:00,
2013-03-22 04:30:00,35.5,32.9,30.25,North,0,0.0,0.0,90,0.00,,SKC,0.03,VWS V13.01,2013-03-22 11:30:00,
2013-03-22 04:40:00,34.9,32.3,30.25,North,0,0.0,0.0,90,0.00,,SKC,0.03,VWS V13.01,2013-03-22 11:40:00,
2013-03-22 04:50:00,34.4,31.8,30.26,North,0,0.0,0.0,90,0.01,,SKC,0.04,VWS V13.01,2013-03-22 11:50:00,
2013-03-22 05:00:00,34.6,32.0,30.26,North,0,0.0,0.0,90,0.01,,SKC,0.04,VWS V13.01,2013-03-22 12:00:00,
2013-03-22 05:10:00,34.1,31.5,30.26,North,0,0.0,0.0,90,0.01,,SKC,0.04,VWS V13.01,2013-03-22 12:10:00,
2013-03-22 05:20:00,33.8,31.5,30.26,North,0,0.0,0.0,91,0.01,,SKC,0.04,VWS V13.01,2013-03-22 12:20:00,
2013-03-22 05:30:00,33.5,31.2,30.26,North,0,0.0,0.0,91,0.01,,SKC,0.04,VWS V13.01,2013-03-22 12:30:00,
2013-03-22 05:40:00,33.1,30.8,30.26,North,0,0.0,0.0,91,0.01,,SKC,0.04,VWS V13.01,2013-03-22 12:40:00,
2013-03-22 05:50:00,33.1,30.8,30.27,North,0,0.0,0.0,91,0.01,,SKC,0.04,VWS V13.01,2013-03-22 12:50:00,
2013-03-22 06:00:00,32.5,30.2,30.27,North,0,0.0,0.0,91,0.00,,SKC,0.04,VWS V13.01,2013-03-22 13:00:00,
2013-03-22 06:10:00,32.2,29.9,30.27,North,0,0.0,0.0,91,0.00,,SKC,0.04,VWS V13.01,2013-03-22 13:10:00,
2013-03-22 06:20:00,32.2,29.9,30.27,North,0,0.0,0.0,91,0.00,,SKC,0.04,VWS V13.01,2013-03-22 13:20:00,
2013-03-22 06:30:00,32.1,29.8,30.29,North,0,0.0,0.0,91,0.00,,SKC,0.04,VWS V13.01,2013-03-22 13:30:00,
2013-03-22 06:42:00,32.1,29.8,30.29,North,0,0.0,0.0,91,0.00,,SKC,0.04,VWS V13.01,2013-03-22 13:42:00,
2013-03-22 06:49:00,31.5,29.2,30.29,SSW,201,0.0,0.0,91,0.00,,SKC,0.04,VWS V13.01,2013-03-22 13:49:00,
2013-03-22 06:59:00,31.5,29.5,30.29,SSW,200,0.0,0.0,92,0.00,,SKC,0.04,VWS V13.01,2013-03-22 13:59:00,
2013-03-22 07:09:00,31.5,29.5,30.29,SSW,200,0.0,0.0,92,0.00,,SKC,0.04,VWS V13.01,2013-03-22 14:09:00,
2013-03-22 07:19:00,31.5,29.5,30.29,SSW,201,0.0,0.0,92,0.00,,SKC,0.04,VWS V13.01,2013-03-22 14:19:00,
2013-03-22 07:29:00,31.8,29.8,30.29,SSW,200,0.0,0.0,92,0.00,,SKC,0.04,VWS V13.01,2013-03-22 14:29:00,
2013-03-22 07:39:00,32.1,30.0,30.29,SSW,201,0.0,0.0,92,0.00,,SKC,0.04,VWS V13.01,2013-03-22 14:39:00,
2013-03-22 07:49:00,32.5,30.4,30.29,SSW,200,0.0,0.0,92,0.00,,SKC,0.04,VWS V13.01,2013-03-22 14:49:00,
2013-03-22 07:59:00,32.8,30.7,30.29,SSW,200,0.0,0.0,92,0.00,,SKC,0.04,VWS V13.01,2013-03-22 14:59:00,
2013-03-22 08:09:00,33.1,31.3,30.29,SSW,200,0.0,0.0,93,0.00,,SKC,0.04,VWS V13.01,2013-03-22 15:09:00,
2013-03-22 08:19:00,33.8,32.0,30.29,SSW,201,0.0,0.0,93,0.00,,SKC,0.04,VWS V13.01,2013-03-22 15:19:00,
2013-03-22 08:29:00,34.1,32.3,30.29,SSW,200,0.0,0.0,93,0.00,,SKC,0.04,VWS V13.01,2013-03-22 15:29:00,
2013-03-22 08:39:00,34.7,32.9,30.29,SSW,200,0.0,0.0,93,0.00,,SKC,0.04,VWS V13.01,2013-03-22 15:39:00,
2013-03-22 08:49:00,35.2,33.4,30.29,SSW,200,0.0,0.0,93,0.00,,SKC,0.04,VWS V13.01,2013-03-22 15:49:00,
2013-03-22 08:59:00,35.5,33.7,30.29,South,170,0.0,0.0,93,0.00,,SKC,0.04,VWS V13.01,2013-03-22 15:59:00,
2013-03-22 09:09:00,35.9,33.8,30.29,South,173,0.0,0.0,92,0.00,,SKC,0.04,VWS V13.01,2013-03-22 16:09:00,
2013-03-22 09:19:00,36.2,34.1,30.30,SSW,205,0.0,0.0,92,0.00,,SKC,0.04,VWS V13.01,2013-03-22 16:19:00,
2013-03-22 09:29:00,36.6,34.2,30.30,WSW,245,0.0,0.0,91,0.00,,SKC,0.04,VWS V13.01,2013-03-22 16:29:00,
2013-03-22 09:39:00,36.8,34.2,30.30,SW,215,0.0,0.0,90,0.00,,SKC,0.04,VWS V13.01,2013-03-22 16:39:00,
2013-03-22 09:49:00,37.8,35.1,30.30,West,261,0.0,0.0,90,0.00,,SKC,0.04,VWS V13.01,2013-03-22 16:49:00,
2013-03-22 09:59:00,38.2,34.7,30.30,SSW,201,0.0,0.0,87,0.00,,SKC,0.04,VWS V13.01,2013-03-22 16:59:00,
2013-03-22 10:09:00,38.3,33.9,30.30,West,272,0.0,0.0,84,0.00,,SKC,0.04,VWS V13.01,2013-03-22 17:09:00,
2013-03-22 10:19:00,38.6,33.9,30.31,WSW,238,0.0,0.0,83,0.00,,SKC,0.04,VWS V13.01,2013-03-22 17:19:00,
2013-03-22 10:29:00,38.9,33.6,30.31,SSW,199,0.0,0.0,81,0.00,,SKC,0.04,VWS V13.01,2013-03-22 17:29:00,
2013-03-22 10:39:00,39.2,32.6,30.31,WSW,238,0.0,0.0,77,0.00,,SKC,0.04,VWS V13.01,2013-03-22 17:39:00,
2013-03-22 10:49:00,39.6,32.7,30.30,SW,227,0.0,0.0,76,0.00,,SKC,0.04,VWS V13.01,2013-03-22 17:49:00,
2013-03-22 10:59:00,40.8,32.5,30.30,WSW,237,0.0,0.0,72,0.00,,SKC,0.04,VWS V13.01,2013-03-22 17:59:00,
2013-03-22 11:09:00,40.9,30.4,30.30,WSW,240,0.0,0.0,66,0.00,,SKC,0.04,VWS V13.01,2013-03-22 18:09:00,
2013-03-22 11:19:00,41.1,30.6,30.30,SW,218,0.0,0.0,66,0.00,,SKC,0.04,VWS V13.01,2013-03-22 18:19:00,
2013-03-22 11:29:00,40.9,30.8,30.30,WNW,291,0.0,0.0,67,0.00,,SKC,0.04,VWS V13.01,2013-03-22 18:29:00,
2013-03-22 11:39:00,42.1,31.6,30.30,NNW,341,0.0,0.0,66,0.00,,SKC,0.04,VWS V13.01,2013-03-22 18:39:00,
2013-03-22 11:49:00,41.8,31.3,30.30,SW,214,0.0,0.0,66,0.00,,SKC,0.04,VWS V13.01,2013-03-22 18:49:00,
2013-03-22 11:59:00,41.6,30.0,30.31,SW,232,0.0,0.0,63,0.00,,SKC,0.04,VWS V13.01,2013-03-22 18:59:00,
2013-03-22 12:09:00,41.2,31.5,30.31,West,277,0.0,0.0,68,0.00,,SKC,0.04,VWS V13.01,2013-03-22 19:09:00,
2013-03-22 12:19:00,41.2,31.8,30.31,West,265,0.0,0.0,69,0.00,,SKC,0.04,VWS V13.01,2013-03-22 19:19:00,
2013-03-22 12:29:00,42.1,31.6,30.31,WSW,249,0.0,0.0,66,0.00,,SKC,0.04,VWS V13.01,2013-03-22 19:29:00,
2013-03-22 12:39:00,42.2,31.3,30.31,West,263,0.0,0.0,65,0.00,,SKC,0.04,VWS V13.01,2013-03-22 19:39:00,
2013-03-22 12:49:00,42.2,30.9,30.30,SSW,212,0.0,0.0,64,0.00,,SKC,0.04,VWS V13.01,2013-03-22 19:49:00,
2013-03-22 12:59:00,43.1,31.0,30.30,SW,229,0.0,0.0,62,0.00,,SKC,0.04,VWS V13.01,2013-03-22 19:59:00,
2013-03-22 13:09:00,43.9,30.1,30.30,WSW,251,0.0,0.0,58,0.00,,SKC,0.04,VWS V13.01,2013-03-22 20:09:00,
2013-03-22 13:19:00,43.9,29.2,30.30,NW,304,0.0,0.0,56,0.00,,SKC,0.04,VWS V13.01,2013-03-22 20:19:00,
2013-03-22 13:29:00,44.6,28.1,30.29,NNW,327,0.0,0.0,52,0.00,,SKC,0.04,VWS V13.01,2013-03-22 20:29:00,
2013-03-22 13:39:00,44.1,27.6,30.29,NW,307,0.0,0.0,52,0.00,,SKC,0.04,VWS V13.01,2013-03-22 20:39:00,
2013-03-22 13:49:00,44.3,29.2,30.29,NNW,338,0.0,0.0,55,0.00,,SKC,0.04,VWS V13.01,2013-03-22 20:49:00,
2013-03-22 13:59:00,44.2,29.1,30.30,North,356,0.0,0.0,55,0.00,,SKC,0.04,VWS V13.01,2013-03-22 20:59:00,
2013-03-22 14:09:00,44.1,30.3,30.30,North,0,0.0,0.0,58,0.00,,SKC,0.04,VWS V13.01,2013-03-22 21:09:00,
2013-03-22 14:19:00,43.6,29.8,30.30,West,264,0.0,0.0,58,0.00,,SKC,0.04,VWS V13.01,2013-03-22 21:19:00,
2013-03-22 14:29:00,44.1,30.7,30.29,SW,235,0.0,0.0,59,0.00,,SKC,0.04,VWS V13.01,2013-03-22 21:29:00,
2013-03-22 14:39:00,43.2,29.9,30.29,NW,305,0.0,0.0,59,0.00,,SKC,0.04,VWS V13.01,2013-03-22 21:39:00,
2013-03-22 14:49:00,44.8,30.9,30.29,SW,218,0.0,0.0,58,0.00,,SKC,0.04,VWS V13.01,2013-03-22 21:49:00,
2013-03-22 14:59:00,44.8,30.1,30.28,WSW,248,0.0,0.0,56,0.00,,SKC,0.04,VWS V13.01,2013-03-22 21:59:00,
2013-03-22 15:09:00,45.4,29.7,30.28,WSW,257,0.0,0.0,54,0.00,,SKC,0.04,VWS V13.01,2013-03-22 22:09:00,
2013-03-22 15:19:00,45.2,30.0,30.28,SSW,200,0.0,0.0,55,0.00,,SKC,0.04,VWS V13.01,2013-03-22 22:19:00,
2013-03-22 15:29:00,44.3,30.9,30.28,SW,236,0.0,0.0,59,0.00,,SKC,0.04,VWS V13.01,2013-03-22 22:29:00,
2013-03-22 15:39:00,44.1,32.3,30.28,SW,228,0.0,0.0,63,0.00,,SKC,0.04,VWS V13.01,2013-03-22 22:39:00,
2013-03-22 15:49:00,43.9,32.1,30.28,SSE,154,0.0,0.0,63,0.00,,SKC,0.04,VWS V13.01,2013-03-22 22:49:00,
2013-03-22 15:59:00,42.9,32.3,30.29,North,1,0.0,0.0,66,0.00,,SKC,0.04,VWS V13.01,2013-03-22 22:59:00,
2013-03-22 16:09:00,42.3,35.9,30.29,ENE,59,0.0,0.0,78,0.01,,SKC,0.05,VWS V13.01,2013-03-22 23:09:00,
2013-03-22 16:19:00,42.9,36.2,30.29,ENE,77,0.0,0.0,77,0.01,,SKC,0.05,VWS V13.01,2013-03-22 23:19:00,
2013-03-22 16:29:00,43.1,34.3,30.29,ENE,77,0.0,0.0,71,0.01,,SKC,0.05,VWS V13.01,2013-03-22 23:29:00,
2013-03-22 16:39:00,43.1,34.0,30.29,SE,143,0.0,0.0,70,0.01,,SKC,0.05,VWS V13.01,2013-03-22 23:39:00,
2013-03-22 16:49:00,43.5,34.7,30.28,South,181,0.0,0.0,71,0.01,,SKC,0.05,VWS V13.01,2013-03-22 23:49:00,
2013-03-22 16:59:00,43.5,34.4,30.28,SE,129,0.0,0.0,70,0.01,,SKC,0.05,VWS V13.01,2013-03-22 23:59:00,
2013-03-22 17:09:00,43.3,33.8,30.28,SSW,196,0.0,0.0,69,0.01,,SKC,0.05,VWS V13.01,2013-03-23 00:09:00,
2013-03-22 17:19:00,43.2,33.7,30.29,SSW,196,0.0,0.0,69,0.00,,SKC,0.05,VWS V13.01,2013-03-23 00:19:00,
2013-03-22 17:39:00,41.1,33.5,30.30,WNW,288,0.0,0.0,74,0.03,,SKC,0.08,VWS V13.01,2013-03-23 00:39:00,
2013-03-22 17:49:00,42.1,34.8,30.29,SSE,161,0.0,0.0,75,0.04,,SKC,0.09,VWS V13.01,2013-03-23 00:49:00,
2013-03-22 17:59:00,41.2,35.2,30.29,SE,143,0.0,0.0,79,0.04,,SKC,0.09,VWS V13.01,2013-03-23 00:59:00,
2013-03-22 18:09:00,41.1,35.7,30.29,SSE,162,0.0,0.0,81,0.04,,SKC,0.09,VWS V13.01,2013-03-23 01:09:00,
2013-03-22 18:19:00,41.1,36.0,30.29,SSE,167,0.0,0.0,82,0.04,,SKC,0.09,VWS V13.01,2013-03-23 01:19:00,
2013-03-22 18:29:00,41.5,36.1,30.29,WSW,245,0.0,0.0,81,0.04,,SKC,0.09,VWS V13.01,2013-03-23 01:29:00,
2013-03-22 18:39:00,41.6,36.2,30.29,SSE,158,0.0,0.0,81,0.02,,SKC,0.09,VWS V13.01,2013-03-23 01:39:00,
2013-03-22 18:49:00,41.6,35.9,30.29,SW,214,0.0,0.0,80,0.01,,SKC,0.09,VWS V13.01,2013-03-23 01:49:00,
2013-03-22 18:59:00,41.6,35.9,30.29,SW,214,0.0,0.0,80,0.00,,SKC,0.09,VWS V13.01,2013-03-23 01:59:00,
2013-03-22 19:09:00,41.5,36.1,30.29,SW,214,0.0,0.0,81,0.00,,SKC,0.09,VWS V13.01,2013-03-23 02:09:00,
2013-03-22 19:19:00,41.3,35.6,30.29,SW,214,0.0,0.0,80,0.01,,SKC,0.10,VWS V13.01,2013-03-23 02:19:00,
2013-03-22 19:29:00,41.5,35.8,30.29,SW,214,0.0,0.0,80,0.01,,SKC,0.10,VWS V13.01,2013-03-23 02:29:00,
2013-03-22 19:39:00,40.9,35.8,30.29,SW,214,0.0,0.0,82,0.01,,SKC,0.10,VWS V13.01,2013-03-23 02:39:00,
2013-03-22 19:49:00,40.2,35.5,30.29,SW,214,0.0,0.0,83,0.01,,SKC,0.10,VWS V13.01,2013-03-23 02:49:00,
2013-03-22 19:59:00,39.9,35.5,30.30,SW,214,0.0,0.0,84,0.01,,SKC,0.10,VWS V13.01,2013-03-23 02:59:00,
2013-03-22 20:09:00,39.5,35.4,30.30,SW,214,0.0,0.0,85,0.01,,SKC,0.10,VWS V13.01,2013-03-23 03:09:00,
2013-03-22 20:19:00,39.2,35.4,30.30,SW,214,0.0,0.0,86,0.01,,SKC,0.10,VWS V13.01,2013-03-23 03:19:00,
2013-03-22 20:29:00,38.8,35.0,30.30,SW,214,0.0,0.0,86,0.00,,SKC,0.10,VWS V13.01,2013-03-23 03:29:00,
2013-03-22 20:39:00,38.5,35.0,30.30,SW,214,0.0,0.0,87,0.00,,SKC,0.10,VWS V13.01,2013-03-23 03:39:00,
2013-03-22 20:49:00,38.3,34.8,30.30,SW,214,0.0,0.0,87,0.00,,SKC,0.10,VWS V13.01,2013-03-23 03:49:00,
2013-03-22 20:59:00,37.9,34.4,30.31,SW,214,0.0,0.0,87,0.00,,SKC,0.10,VWS V13.01,2013-03-23 03:59:00,
2013-03-22 21:09:00,37.8,34.6,30.31,SW,214,0.0,0.0,88,0.00,,SKC,0.10,VWS V13.01,2013-03-23 04:09:00,
2013-03-22 21:19:00,37.5,34.3,30.31,SW,214,0.0,0.0,88,0.00,,SKC,0.10,VWS V13.01,2013-03-23 04:19:00,
2013-03-22 21:29:00,37.2,34.0,30.32,SW,214,0.0,0.0,88,0.00,,SKC,0.10,VWS V13.01,2013-03-23 04:29:00,
2013-03-22 21:39:00,36.9,34.0,30.32,SW,214,0.0,0.0,89,0.00,,SKC,0.10,VWS V13.01,2013-03-23 04:39:00,
2013-03-22 21:49:00,36.9,34.0,30.32,SW,214,0.0,0.0,89,0.00,,SKC,0.10,VWS V13.01,2013-03-23 04:49:00,
2013-03-22 21:59:00,36.6,33.7,30.32,SW,214,0.0,0.0,89,0.00,,SKC,0.10,VWS V13.01,2013-03-23 04:59:00,
2013-03-22 22:09:00,36.6,34.0,30.32,SW,214,0.0,0.0,90,0.00,,SKC,0.10,VWS V13.01,2013-03-23 05:09:00,
2013-03-22 22:19:00,36.6,34.0,30.32,SW,214,0.0,0.0,90,0.00,,SKC,0.10,VWS V13.01,2013-03-23 05:19:00,
2013-03-22 22:29:00,36.9,34.2,30.32,SW,214,0.0,0.0,90,0.00,,SKC,0.10,VWS V13.01,2013-03-23 05:29:00,
2013-03-22 22:39:00,36.9,34.2,30.32,SW,214,0.0,0.0,90,0.00,,SKC,0.10,VWS V13.01,2013-03-23 05:39:00,
2013-03-22 22:49:00,37.0,34.3,30.33,SW,214,0.0,0.0,90,0.00,,SKC,0.10,VWS V13.01,2013-03-23 05:49:00,
2013-03-22 22:59:00,36.6,34.0,30.33,NE,48,0.0,0.0,90,0.00,,SKC,0.10,VWS V13.01,2013-03-23 05:59:00,
2013-03-22 23:09:00,36.5,33.8,30.33,ENE,69,0.0,0.0,90,0.00,,SKC,0.10,VWS V13.01,2013-03-23 06:09:00,
2013-03-22 23:19:00,36.3,33.4,30.33,East,94,0.0,0.0,89,0.00,,SKC,0.10,VWS V13.01,2013-03-23 06:19:00,
2013-03-22 23:29:00,36.0,33.1,30.33,South,183,0.0,0.0,89,0.01,,SKC,0.11,VWS V13.01,2013-03-23 06:29:00,
2013-03-22 23:39:00,36.3,33.1,30.33,SE,124,0.0,0.0,88,0.02,,SKC,0.12,VWS V13.01,2013-03-23 06:39:00,
2013-03-22 23:49:00,36.3,33.1,30.33,SE,135,0.0,0.0,88,0.02,,SKC,0.12,VWS V13.01,2013-03-23 06:49:00,
2013-03-22 23:59:00,36.3,33.1,30.33,SE,135,0.0,0.0,88,0.02,,SKC,0.00,VWS V13.01,2013-03-23 06:59:00,